Location: A�n Tadlesse
(35.0351°N, 0.5353°E)
Time: 22:33:26
(UTC+00:00)

YAOGAN 1 - Pass Details

Date: 21 October 2019
Orbit: 619 x 621 km, 98.0° (Epoch: 16 November)

Event Time Altitude Azimuth Distance (km) Brightness Sun altitude
Rises 17:36:55 0° 133° (SE) 2,885 5.6 -5.0°
Reaches altitude 10° 17:39:31 10° 117° (ESE) 1,983 4.7 -5.6°
Maximum altitude 17:42:44 21° 69° (ENE) 1,410 3.8 -6.2°
Drops below altitude 10° 17:45:57 10° 21° (NNE) 1,992 4.9 -6.9°
Sets 17:48:34 0° 5° (N) 2,902 5.9 -7.4°
